| time (UTC) | temp F | wind direction | speed MPH | gust MPH | rain 1hr in | rain 24hr in | rain mn in | humidity % | barometer mb |
| 20260507150050 | 61 | 0.0 | 0.0 | 0.00 | 0.00 | 0.00 | 25 | 1016.8 | |
| 20260507144547 | 61 | 0.0 | 0.0 | 0.00 | 0.00 | 0.00 | 23 | 1016.6 | |
| 20260507143043 | 61 | 0.0 | 0.0 | 0.00 | 0.00 | 0.00 | 22 | 1016.5 | |
| 20260507141551 | 61 | 0.0 | 0.0 | 0.00 | 0.00 | 0.00 | 22 | 1016.4 | |
| 20260507140048 | 60 | 0.0 | 0.0 | 0.00 | 0.00 | 0.00 | 13 | 1016.2 | |
| 20260507134545 | 60 | 0.0 | 0.0 | 0.00 | 0.00 | 0.00 | 12 | 1016.0 | |
| 20260507133042 | 59 | 0.0 | 0.0 | 0.00 | 0.00 | 0.00 | 10 | 1016.0 | |
| 20260507131542 | 59 | 0.0 | 0.0 | 0.00 | 0.00 | 0.00 | 11 | 1015.8 | |
| 20260507130042 | 58 | 0.0 | 0.0 | 0.00 | 0.00 | 0.00 | 10 | 1015.8 | |
| 20260507124549 | 58 | 0.0 | 0.0 | 0.00 | 0.00 | 0.00 | 9 | 1015.9 | |
| 20260507123048 | 58 | 0.0 | 0.0 | 0.00 | 0.00 | 0.00 | 8 | 1015.7 | |
| 20260507121545 | 58 | 0.0 | 0.0 | 0.00 | 0.00 | 0.00 | 7 | 1015.7 | |
| 20260507120050 | 58 | 0.0 | 0.0 | 0.00 | 0.00 | 0.00 | 7 | 1015.0 | |
| 20260507114544 | 58 | 0.0 | 0.0 | 0.00 | 0.00 | 0.00 | 7 | 1014.6 | |
| 20260507113047 | 58 | 0.0 | 0.0 | 0.00 | 0.00 | 0.00 | 5 | 1015.0 | |
| 20260507111540 | 58 | 0.0 | 0.0 | 0.00 | 0.00 | 0.00 | 5 | 1014.9 | |
| 20260507110038 | 58 | 0.0 | 0.0 | 0.00 | 0.00 | 0.00 | 5 | 1014.5 | |
| 20260507104545 | 58 | 0.0 | 0.0 | 0.00 | 0.00 | 0.00 | 5 | 1014.3 | |
| 20260507103043 | 58 | 0.0 | 0.0 | 0.00 | 0.00 | 0.00 | 5 | 1014.2 | |
| 20260507101542 | 58 | 0.0 | 0.0 | 0.00 | 0.00 | 0.00 | 4 | 1014.3 | |
| 20260507100041 | 58 | 0.0 | 0.0 | 0.00 | 0.00 | 0.00 | 4 | 1014.2 | |
| 20260507094539 | 59 | 0.0 | 0.0 | 0.00 | 0.00 | 0.00 | 4 | 1013.6 | |
| 20260507093046 | 59 | 0.0 | 0.0 | 0.00 | 0.00 | 0.00 | 4 | 1013.5 | |
| 20260507091546 | 59 | 0.0 | 0.0 | 0.00 | 0.00 | 0.00 | 4 | 1013.1 | |
| 20260507090045 | 59 | 0.0 | 0.0 | 0.00 | 0.00 | 0.00 | 4 | 1013.1 | |
| 20260507084548 | 59 | 0.0 | 0.0 | 0.00 | 0.00 | 0.00 | 4 | 1013.2 | |
| 20260507083039 | 60 | 0.0 | 0.0 | 0.00 | 0.00 | 0.00 | 3 | 1013.4 | |
| 20260507081547 | 60 | 0.0 | 0.0 | 0.00 | 0.00 | 0.00 | 2 | 1013.2 | |
| 20260507080053 | 60 | 0.0 | 0.0 | 0.00 | 0.00 | 0.00 | 1 | 1013.0 | |
| 20260507074541 | 60 | 0.0 | 0.0 | 0.00 | 0.00 | 0.00 | 2 | 1013.2 | |
| 20260507073043 | 60 | 0.0 | 0.0 | 0.00 | 0.00 | 0.00 | 1 | 1013.2 | |
| 20260507071546 | 60 | 0.0 | 0.0 | 0.00 | 0.00 | 0.00 | 1 | 1013.2 | |
| 20260507070045 | 60 | 0.0 | 0.0 | 0.00 | 0.00 | 0.00 | 1 | 1013.4 | |
| 20260507064559 | 61 | 0.0 | 0.0 | 0.00 | 0.00 | 0.00 | 1 | 1013.5 | |
| 20260507063047 | 61 | 0.0 | 0.0 | 0.00 | 0.00 | 0.00 | 1 | 1013.3 | |
| 20260507061542 | 61 | 0.0 | 0.0 | 0.00 | 0.00 | 0.00 | 2 | 1013.2 | |
| 20260507060038 | 61 | 0.0 | 0.0 | 0.00 | 0.00 | 0.00 | 2 | 1013.5 | |
| 20260507054546 | 62 | 0.0 | 0.0 | 0.00 | 0.00 | 0.00 | 2 | 1013.3 | |
| 20260507053043 | 62 | 0.0 | 0.0 | 0.00 | 0.00 | 0.00 | 1 | 1012.9 | |
| 20260507051542 | 62 | 0.0 | 0.0 | 0.00 | 0.00 | 0.00 | 100 | 1012.8 | |
| 20260507050042 | 63 | 0.0 | 0.0 | 0.00 | 0.00 | 0.00 | 100 | 1012.7 | |
| 20260507044540 | 63 | 0.0 | 0.0 | 0.00 | 0.00 | 0.00 | 100 | 1012.4 | |
| 20260507043049 | 64 | 0.0 | 0.0 | 0.00 | 0.00 | 0.00 | 100 | 1012.3 | |
| 20260507041548 | 64 | 0.0 | 0.0 | 0.00 | 0.00 | 0.00 | 100 | 1012.2 | |
| 20260507040044 | 64 | 0.0 | 0.0 | 0.00 | 0.00 | 0.00 | 100 | 1012.2 | |
| 20260507034554 | 64 | 0.0 | 0.0 | 0.00 | 0.00 | 0.00 | 100 | 1012.1 | |
| 20260507033100 | 64 | 0.0 | 0.0 | 0.00 | 0.00 | 0.00 | 100 | 1012.2 | |
| 20260507031540 | 64 | 0.0 | 0.0 | 0.00 | 0.00 | 0.00 | 100 | 1012.5 | |
| 20260507030039 | 64 | 0.0 | 0.0 | 0.00 | 0.00 | 0.00 | 100 | 1012.5 | |
| 20260507024552 | 64 | 0.0 | 0.0 | 0.00 | 0.00 | 0.00 | 100 | 1012.0 | |
| 20260507023043 | 64 | 0.0 | 0.0 | 0.00 | 0.00 | 0.00 | 100 | 1012.2 | |
| 20260507021543 | 64 | 0.0 | 0.0 | 0.00 | 0.00 | 0.00 | 2 | 1012.2 | |
| 20260507020042 | 64 | 0.0 | 0.0 | 0.00 | 0.00 | 0.00 | 4 | 1011.9 | |
| 20260507014542 | 64 | 0.0 | 0.0 | 0.00 | 0.00 | 0.00 | 6 | 1012.0 | |
| 20260507013045 | 65 | 0.0 | 0.0 | 0.00 | 0.00 | 0.00 | 8 | 1011.9 | |
| 20260507011545 | 65 | 0.0 | 0.0 | 0.00 | 0.00 | 0.00 | 13 | 1012.0 | |
| 20260507010048 | 66 | 0.0 | 0.0 | 0.00 | 0.00 | 0.00 | 17 | 1010.5 | |
| 20260507004540 | 67 | 0.0 | 0.0 | 0.00 | 0.00 | 0.00 | 19 | 1011.1 | |
| 20260507003042 | 68 | 0.0 | 0.0 | 0.00 | 0.00 | 0.00 | 17 | 1011.5 | |
| 20260507001605 | 69 | 0.0 | 0.0 | 0.00 | 0.00 | 0.00 | 20 | 1011.3 | |
| 20260507000045 | 70 | 0.0 | 0.0 | 0.00 | 0.00 | 0.00 | 26 | 1010.7 | |
| 20260506234552 | 72 | 0.0 | 0.0 | 0.00 | 0.00 | 0.00 | 38 | 1010.2 | |
| 20260506233041 | 73 | 0.0 | 0.0 | 0.00 | 0.00 | 0.00 | 47 | 1010.5 | |
| 20260506231542 | 74 | 0.0 | 0.0 | 0.00 | 0.00 | 0.00 | 53 | 1010.8 | |
| 20260506230040 | 76 | 0.0 | 0.0 | 0.00 | 0.00 | 0.00 | 61 | 1010.4 | |
| 20260506224603 | 78 | 0.0 | 0.0 | 0.00 | 0.00 | 0.00 | 55 | 1010.2 | |
| 20260506223046 | 79 | 0.0 | 0.0 | 0.00 | 0.00 | 0.00 | 40 | 1010.1 | |
| 20260506221542 | 79 | 0.0 | 0.0 | 0.00 | 0.00 | 0.00 | 43 | 1010.3 | |
| 20260506220048 | 79 | 0.0 | 0.0 | 0.00 | 0.00 | 0.00 | 40 | 1010.4 | |
| 20260506214542 | 79 | 0.0 | 0.0 | 0.00 | 0.00 | 0.00 | 42 | 1010.0 | |
| 20260506213045 | 79 | 0.0 | 0.0 | 0.00 | 0.00 | 0.00 | 47 | 1010.3 | |
| 20260506211552 | 80 | 0.0 | 0.0 | 0.00 | 0.00 | 0.00 | 49 | 1010.4 | |
| 20260506210043 | 80 | 0.0 | 0.0 | 0.00 | 0.00 | 0.00 | 51 | 1010.5 | |
| 20260506204542 | 80 | 0.0 | 0.0 | 0.00 | 0.00 | 0.00 | 54 | 1010.6 | |
| 20260506203038 | 81 | 0.0 | 0.0 | 0.00 | 0.00 | 0.00 | 54 | 1010.9 | |
| 20260506201542 | 81 | 0.0 | 0.0 | 0.00 | 0.00 | 0.00 | 49 | 1011.3 | |
| 20260506200045 | 81 | 0.0 | 0.0 | 0.00 | 0.00 | 0.00 | 46 | 1011.5 | |
| 20260506194546 | 80 | 0.0 | 0.0 | 0.00 | 0.00 | 0.00 | 44 | 1011.8 | |
| 20260506193048 | 80 | 0.0 | 0.0 | 0.00 | 0.00 | 0.00 | 48 | 1012.1 | |
| 20260506191541 | 80 | 0.0 | 0.0 | 0.00 | 0.00 | 0.00 | 50 | 1012.2 | |
| 20260506190043 | 80 | 0.0 | 0.0 | 0.00 | 0.00 | 0.00 | 46 | 1012.2 | |
| 20260506184539 | 80 | 0.0 | 0.0 | 0.00 | 0.00 | 0.00 | 45 | 1012.4 | |
| 20260506183045 | 80 | 0.0 | 0.0 | 0.00 | 0.00 | 0.00 | 42 | 1012.7 | |
| 20260506181558 | 79 | 0.0 | 0.0 | 0.00 | 0.00 | 0.00 | 42 | 1012.8 | |
| 20260506180043 | 78 | 0.0 | 0.0 | 0.00 | 0.00 | 0.00 | 24 | 1012.9 | |
| 20260506174541 | 77 | 0.0 | 0.0 | 0.00 | 0.00 | 0.00 | 25 | 1013.0 | |
| 20260506173116 | 77 | 0.0 | 0.0 | 0.00 | 0.00 | 0.00 | 28 | 1013.4 | |
| 20260506171551 | 77 | 0.0 | 0.0 | 0.00 | 0.00 | 0.00 | 18 | 1013.4 | |
| 20260506170052 | 76 | 0.0 | 0.0 | 0.00 | 0.00 | 0.00 | 17 | 1013.5 | |
| 20260506164543 | 76 | 0.0 | 0.0 | 0.00 | 0.00 | 0.00 | 14 | 1013.5 | |
| 20260506163041 | 76 | 0.0 | 0.0 | 0.00 | 0.00 | 0.00 | 16 | 1013.5 | |
| 20260506161541 | 76 | 0.0 | 0.0 | 0.00 | 0.00 | 0.00 | 12 | 1013.5 | |
| 20260506160041 | 74 | 0.0 | 0.0 | 0.00 | 0.00 | 0.00 | 100 | 1013.4 | |
| 20260506154549 | 72 | 0.0 | 0.0 | 0.00 | 0.00 | 0.00 | 100 | 1013.4 | |
| 20260506153043 | 72 | 0.0 | 0.0 | 0.00 | 0.00 | 0.00 | 100 | 1013.4 | |
| 20260506151545 | 71 | 0.0 | 0.0 | 0.00 | 0.00 | 0.00 | 100 | 1013.4 |